Regional Weather Roundup
Issued by NWS Sterling, VA

Home | Current Version | Previous Version | Graphics & Text | Print | Product List | Glossary On
Versions: 1 2 3 4 5 6 7 8 9 10 11 12 13 14 15 16 17 18 19 20 21 22 23 24 25 26 27 28 29 30 31 32 33 34 35 36 37 38 39 40 41 42 43 44 45 46 47 48 49 50
000
ASUS41 KLWX 050010
RWRLWX

REGIONAL WEATHER ROUNDUP
NATIONAL WEATHER SERVICE BALTIMORE MD/WASHINGTON DC
800 PM EDT FRI SEP 04 2015

Note: "FAIR" indicates few or no clouds below 12,000 feet
with no significant weather and/or obstructions to visibility.
 TC=TEMPERATURE CELSIUS

 * =Non NWS site. Station does not report precipitation (e.g. rain,
    snow, etc.), thunder, or fog.

DCZ001-MDZ009-015-VAZ040>042-051-053>054-050100-
WASHINGTON METRO

CITY           SKY/WX    TMP DP  RH WIND       PRES   REMARKS
WASHINGTON NAT MOCLDY    84  70  62 E9        30.06R
DULLES         MOCLDY    75  71  87 CALM      30.06R
ANDREWS AFB    FAIR      80  69  70 E9        30.06R
FT BELVOIR     FAIR      78  74  87 SE2       30.05R
QUANTICO       FAIR      76  70  82 NW3       30.06R
COLLEGE PARK*  FAIR      82  68  61 NE3       30.06R
LEESBURG*      FAIR      77  73  88 CALM      30.08R
MANASSAS*      CLEAR     73  73 100 CALM      30.06R
GAITHERSBURG*  FAIR      79  66  65 E5        30.12R

$$

MDZ006>007-011-014-050100-
BALTIMORE METRO

CITY           SKY/WX    TMP DP  RH WIND       PRES   REMARKS
BWI AIRPORT    MOCLDY    81  70  69 E13       30.07R
MD SCIENCE CTR   N/A     81  70  69 MISG      30.08R
MARTIN STATE   CLEAR     81  75  83 E6        30.09R
ANNAPOLIS      FAIR      81  71  71 E13G21    30.07R
FORT MEADE*    FAIR      79  68  69 E8        30.09R

$$

MDZ012-015-019>023-050100-
MARYLAND EASTERN SHORE

CITY           SKY/WX    TMP DP  RH WIND       PRES   REMARKS
OCEAN CITY     FAIR      78  72  81 SE14G35   30.06R
SALISBURY      FAIR      77  71  82 NE7       30.07R
BAY BRIDGE AP*   N/A     79  68  69 E9        30.07R
CAMBRIDGE*     FAIR      79  68  69 E6        30.06R

$$

MDZ017>025-050100-
SOUTHERN MARYLAND

CITY           SKY/WX    TMP DP  RH WIND       PRES   REMARKS
PATUXENT RIVER MOCLDY    80  68  66 E14       30.05R
ST INIGOES     FAIR      80  69  69 E6        30.04R
LEONARDTOWN*   NOT AVBL

$$

MDZ003>005-050100-
NORTH CENTRAL MARYLAND

CITY           SKY/WX    TMP DP  RH WIND       PRES   REMARKS
FREDERICK*     CLOUDY    81  73  78 SE6       30.09R
HAGERSTOWN APT FAIR      83  69  62 E6        30.08R
WESTMINSTER*   FAIR      79  70  73 E6        30.10R

$$

MDZ501>502-050100-
WESTERN MARYLAND

CITY           SKY/WX    TMP DP  RH WIND       PRES   REMARKS
OAKLAND*       MOCLDY    70  61  73 SE5       30.20S
CUMBERLAND*    FAIR      73  70  88 CALM      30.12S

$$

VAZ025>031-050100-
SHENANDOAH VALLEY

CITY           SKY/WX    TMP DP  RH WIND       PRES   REMARKS
WINCHESTER*    FAIR      77  68  73 CALM      30.08R
FRONT ROYAL*   FAIR      79  68  69 CALM      30.07S
LURAY*         FAIR      70  70 100 SW5       30.08S FOG
NEW MARKET*    FAIR      71  70  96 CALM      30.07S
STAUNTON*      FAIR      73  65  76 CALM      30.12S
WAYNESBORO*    CLOUDY    69  67  92 NW6       30.12S

$$

WVZ021-048>050-054>055-050100-
EASTERN WEST VIRGINIA PANHANDLE

CITY           SKY/WX    TMP DP  RH WIND       PRES   REMARKS
MARTINSBURG    FAIR      79  67  66 CALM      30.08R
PETERSBURG*    FAIR      76  71  83 CALM      30.10R

$$

VAZ036>039-050-050100-
CENTRAL FOOTHILLS

CITY           SKY/WX    TMP DP  RH WIND       PRES   REMARKS
CHARLOTTESVILL FAIR      72  66  81 CALM      30.07F
CULPEPER*      FAIR      70  69  96 CALM      30.07F
ORANGE*        FAIR      72  70  94 CALM      30.08F FOG
GORDONSVILLE*  FAIR      70  70  99 CALM      30.06F FOG
WARRENTON*     FAIR      72  72 100 CALM      30.07R FOG

$$

VAZ055>057-050100-
NORTH AND CENTRAL PIEDMONT

CITY           SKY/WX    TMP DP  RH WIND       PRES   REMARKS
FREDERICKSBRG* FAIR      77  71  80 CALM      30.05R
STAFFORD*      FAIR      76  71  84 CALM      30.10R

$$

NCZ024-NYZ072-PAZ021-071-VAZ022-071-050100-
OTHER REGIONAL OBSERVATIONS

CITY           SKY/WX    TMP DP  RH WIND       PRES   REMARKS
NEW YORK CITY  FAIR      79  64  60 SE7       30.16R
PHILADELPHIA   MOCLDY    78  66  66 E12       30.12R
PITTSBURGH     MOCLDY    81  59  47 NW10      30.10R
ROANOKE        CLOUDY    69  65  86 N3        30.13R
RICHMOND       CLOUDY    79  70  74 E3        30.04R
RALEIGH        MOCLDY    77  70  79 CALM      30.02R

$$

ANZ530>537-050100-
MARINE OBSERVATIONS

STATION/POSITION TIME  TEMP    WIND        PRES
                       AIR SEA DIR/SP/G
                 (UTC) (F)     (DEG/KT/KT) (MB)
THOMAS PT LIGHT  0000   80     100/ 15     1018.5
BALT KEY BRIDGE  2300   82      60/ 12/ 14 1017.7R
COVE POINT       2300   83     110/ 14/ 17 1017.9R
LEWISETTA        2300   82 83  150/  8/ 11 1016.5R
SOLOMONS ISLAND  2300      83                N/A
PINEY POINT      2305          160/ 11/ 12   N/A

$$



USA.gov is the U.S. government's official web portal to all federal, state and local government web resources and services.